SL-14 DEB, 47078

Orbit data source: Space-Track

SL-14 DEB, 47078 is space debris in LEO originally from a launch on Thu, 15 Aug 1991 UTC launched from the Plesetsk Missile And Space Complex (PKMTR). Debris objects in space refer to the collection of defunct objects orbiting the Earth. Examples of debris include non-operational satellites, rocket bodies, and fragments generated from explosions, collisions, or faulty payload assembly.

Loading next visibility...
Identifier
47078, 1991-056DC
Orbit
LEO
Country
Flag of CISCIS
Related business
Manufacturer
Unknown
Mission
Spacecraft
Bus & Motor
Unknown
Mass
Unknown
Launch date (UTC)
1991-08-15 (34 years ago)
Launch vehicle
Unknown
Launch site
Plesetsk Missile And Space Complex (PKMTR)
Object type
Payload
Rocket body
Debris
Shape & HBR
Unknown shape, 0.1 m
Radar Cross Section
Small (<0.1 m²)

Expand to show TLE details & history
Last TLE update: 18 hours ago

TLE from 18 hours ago
0 SL-14 DEB
1 47078U 91056DC  25295.41418646  .00001189  00000-0  25214-2 0  9999
2 47078  82.5545 280.2431 0041541 170.8507 189.3389 13.29637977240933
Epoch: 2025-10-22T09:56Z
TLE epoch observation values (Epoch: 2025-10-22T09:56:25.710Z)
Latitude
-0.00001°
Longitude
100.04784°
Altitude
1,181.814 km
Speed
7.248 km/s
True Right ascension
18h 40m 58s
True Declination
0° 00' 00"
Sunlit
Object was in daylight at epoch
Visualization orbit readout
Latitude
Unknown
Longitude
Unknown
Altitude
Unknown
Speed
Unknown
Apparent Right ascension
Unknown
Apparent Declination
Unknown
Sunlit
N/A
Visualization observer readout
Local Sidereal Time
22:49:05
Azimuth
Unknown
Elevation
Unknown
Doppler factor
Unknown
Orbital elements
Apogee altitude
1,176.609 km
Perigee altitude
1,114.103 km
Semi-major axis
7,523.493 km
Eccentricity
0.00415
Inclination
82.5545°
RAAN
280.2431°
Arg. of periapsis
170.8507°
True anomaly
189.26205°
Mean anomaly
189.3389°
Eccentric anomaly
189.30043°
Mean motion
3.32594 °/min
Orbital period
108.24 mins
BSTAR
0.0025214
Loading maneuver chart data...
Computing Atmospheric mass density...
Loading historical data...
Loading historical data...
Loading historical data...
Loading historical data...
Loading historical data...
Loading historical data...
Loading historical data...

Documentation

Showing up to 5 results
|